| DS18B20 | SHTC3 | ||||||
|---|---|---|---|---|---|---|---|
| ID | Date d/m/Y & Time | data1 สูง | data2 ต่ำ | data3 นอก | temp pcb | hum pcb | Time |
| 10079 | 08/04/2026 23:27:56 | 30.3  | 30.4  | 28.9  | 30.2  | 69.3  | 23:27 |
| 10078 | 08/04/2026 23:23:15 | 30.4  | 30.5  | 28.9  | 30.3  | 69.3  | 23:23 |
| 10077 | 08/04/2026 23:18:33 | 30.4  | 30.5  | 28.8  | 30.3  | 69.3  | 23:18 |
| 10076 | 08/04/2026 23:13:52 | 30.4  | 30.6  | 28.9  | 30.2  | 69.3  | 23:13 |
| 10075 | 08/04/2026 23:09:08 | 30.4  | 30.6  | 28.7  | 30.4  | 69.3  | 23:09 |
| 10074 | 08/04/2026 23:04:26 | 30.4  | 30.6  | 28.7  | 30.4  | 69.2  | 23:04 |
| 10073 | 08/04/2026 22:59:44 | 30.5  | 30.6  | 28.8  | 30.7  | 69.3  | 22:59 |
| 10072 | 08/04/2026 22:55:01 | 30.4  | 30.6  | 28.7  | 30.4  | 69.2  | 22:55 |
| 10071 | 08/04/2026 22:50:19 | 30.5  | 30.6  | 28.5  | 30.5  | 69.3  | 22:50 |
| 10070 | 08/04/2026 22:45:36 | 30.6  | 30.7  | 28.9  | 30.5  | 69.3  | 22:45 |
| 10069 | 08/04/2026 22:40:54 | 30.6  | 30.7  | 29.0  | 30.5  | 69.3  | 22:40 |
| 10068 | 08/04/2026 22:36:12 | 30.6  | 30.7  | 29.2  | 30.6  | 69.2  | 22:36 |
| 10067 | 08/04/2026 22:31:31 | 30.6  | 30.8  | 29.0  | 30.5  | 69.3  | 22:31 |
| 10066 | 08/04/2026 22:21:58 | 30.7  | 30.8  | 29.2  | 30.7  | 69.2  | 22:21 |
| 10065 | 08/04/2026 22:17:17 | 30.7  | 30.8  | 29.2  | 30.7  | 69.4  | 22:17 |
| 10064 | 08/04/2026 22:12:35 | 30.7  | 30.8  | 29.2  | 30.7  | 69.3  | 22:12 |
| 10063 | 08/04/2026 22:07:53 | 30.7  | 30.8  | 29.2  | 30.7  | 69.3  | 22:07 |
| 10062 | 08/04/2026 22:03:11 | 30.7  | 30.8  | 29.3  | 30.8  | 69.3  | 22:03 |
| 10061 | 08/04/2026 21:58:29 | 30.8  | 30.9  | 29.5  | 30.6  | 69.2  | 21:58 |
| 10060 | 08/04/2026 21:53:47 | 30.8  | 30.9  | 29.4  | 30.9  | 69.1  | 21:53 |
| 10059 | 08/04/2026 21:49:05 | 30.8  | 30.9  | 29.4  | 30.7  | 69.1  | 21:49 |
| 10058 | 08/04/2026 21:44:23 | 30.8  | 30.9  | 29.4  | 30.7  | 69.1  | 21:44 |
| 10057 | 08/04/2026 21:39:42 | 30.9  | 30.9  | 29.3  | 30.8  | 69.2  | 21:39 |
| 10056 | 08/04/2026 21:35:00 | 30.9  | 31.0  | 29.5  | 30.9  | 69.1  | 21:35 |